DB0OHA-10 Weather Reports


time (UTC)temp
C
wind
direction
speed
KPH
gust
KPH
rain 1hr
cm
rain 24hr
cm
rain mn
cm
humidity
%
barometer
mb
20260506213010 9 273 4.8 12.9 0.05 4.50 4.45 1 1006.9
20260506211510 9 284 3.2 12.9 0.03 4.47 4.42 1 1006.7
20260506210010 10 290 1.6 12.9 0.03 4.47 4.42 1 1006.7
20260506204510 10 289 3.2 8.0 0.00 4.65 4.39 1 1006.7
20260506203010 10 262 1.6 9.7 0.00 4.65 4.39 1 1006.5
20260506201510 10 256 0.0 8.0 0.00 4.65 4.39 1 1006.3
20260506200010 10 256 0.0 0.0 0.00 4.65 4.39 1 1006.2
20260506194510 10 256 0.0 0.0 0.00 5.00 4.39 1 1006.2
20260506193205 11 256 0.0 0.0 0.00 5.00 4.39 1 1006.0
20260506193010 11 256 0.0 0.0 0.00 5.00 4.39 1 1006.0
20260506191510 11 256 0.0 0.0 0.00 5.00 4.39 1 1005.8
20260506190010 11 256 0.0 0.0 0.00 5.00 4.39 1 1005.6
20260506184510 11 256 1.6 8.0 0.00 5.08 4.39 1 1005.5
20260506183010 11 257 1.6 8.0 0.00 5.08 4.39 1 1005.0
20260506181924 11 257 3.2 14.5 0.00 5.08 4.39 1 1005.0
20260506181510 11 257 3.2 14.5 0.00 5.08 4.39 1 1005.0
20260506180010 11 259 1.6 4.8 0.00 5.08 4.39 1 1004.9
20260506174515 11 257 3.2 11.3 0.00 5.18 4.39 1 1004.8
20260506174510 11 257 3.2 11.3 0.00 5.18 4.39 1 1004.8
20260506173010 11 261 1.6 9.7 0.00 5.18 4.39 1 1004.9
20260506171510 12 292 3.2 9.7 0.00 5.18 4.39 1 1004.8
20260506170010 12 265 4.8 16.1 0.00 5.18 4.39 1 1004.8
20260506164851 12 287 3.2 14.5 0.00 5.38 4.39 1 1004.6
20260506164510 12 287 3.2 14.5 0.00 5.38 4.39 1 1004.6
20260506163010 12 261 6.4 17.7 0.00 5.38 4.39 1 1004.6
20260506162010 13 255 4.8 16.1 0.00 5.38 4.39 1 1004.3
20260506161510 13 255 4.8 16.1 0.00 5.38 4.39 1 1004.3
20260506160010 13 281 3.2 11.3 0.00 5.38 4.39 1 1004.3
20260506154510 13 299 4.8 12.9 0.00 5.41 4.39 1 1004.3
20260506153010 14 275 8.0 16.1 0.00 5.41 4.39 1 1004.4
20260506151510 14 284 6.4 12.9 0.00 5.41 4.39 1 1004.4
20260506150010 15 297 4.8 14.5 0.00 5.41 4.39 1 1004.4
20260506144510 15 308 3.2 11.3 0.00 5.41 4.39 1 1004.3
20260506143010 15 274 3.2 6.4 0.00 5.41 4.39 1 1004.2
20260506141510 15 265 0.0 0.0 0.00 5.41 4.39 1 1004.4
20260506140010 15 265 0.0 4.8 0.00 5.41 4.39 1 1004.4
20260506134510 14 265 0.0 0.0 0.03 5.41 4.39 1 1004.5
20260506133010 14 264 1.6 9.7 0.20 5.41 4.39 1 1004.6
20260506131735 15 41 0.0 0.0 0.43 5.41 4.39 1 1004.5
20260506131510 15 41 0.0 0.0 0.43 5.41 4.39 1 1004.5
20260506130010 13 41 0.0 0.0 0.58 5.41 4.39 1 1004.4
20260506124510 13 41 0.0 0.0 0.58 5.38 4.37 1 1004.4
20260506123010 12 41 0.0 0.0 0.58 5.21 4.19 1 1004.5
20260506121510 12 41 0.0 8.0 0.51 4.98 3.96 1 1004.2
20260506120010 12 41 3.2 6.4 0.61 4.83 3.81 1 1004.2
20260506114510 13 40 0.0 8.0 0.61 4.80 3.78 1 1004.2
20260506113010 12 40 0.0 0.0 0.43 4.62 3.61 1 1004.1
20260506111510 12 40 0.0 0.0 0.28 4.47 3.45 1 1004.1
20260506110010 13 40 0.0 0.0 0.03 4.22 3.20 1 1004.1
20260506104510 13 36 0.0 0.0 0.00 4.19 3.17 1 1004.1
20260506103010 13 36 3.2 9.7 0.00 4.19 3.17 1 1004.1
20260506101510 13 20 1.6 0.0 0.00 4.19 3.17 1 1004.0
20260506100010 13 13 0.0 0.0 0.00 4.19 3.17 1 1004.0
20260506094510 12 13 0.0 0.0 0.00 4.19 3.17 1 1004.0
20260506093010 12 13 0.0 0.0 0.03 4.19 3.17 1 1004.0
20260506091510 12 13 0.0 0.0 0.05 4.19 3.17 1 1003.8
20260506090010 11 13 0.0 0.0 0.08 4.19 3.17 1 1004.0
20260506084516 11 13 0.0 0.0 0.08 4.19 3.17 1 1004.0
20260506084510 11 13 0.0 0.0 0.08 4.19 3.17 1 1004.0
20260506083016 11 13 0.0 0.0 0.08 4.17 3.15 1 1003.9
20260506083010 11 13 0.0 0.0 0.08 4.17 3.15 1 1003.9
20260506081510 11 13 0.0 0.0 0.10 4.14 3.12 1 1003.7
20260506073010 11 13 0.0 6.4 0.08 4.09 3.07 1 1003.6
20260506071515 11 13 0.0 0.0 0.03 4.04 3.02 1 1003.6
20260506071510 11 13 0.0 0.0 0.03 4.04 3.02 1 1003.6
20260506061510 11 13 0.0 0.0 0.03 4.01 3.00 1 1003.6
20260506050428 10 13 0.0 0.0 0.03 3.99 2.97 1 1003.4
20260506044511 10 13 0.0 0.0 0.03 3.99 2.97 1 1003.6
20260506043351 10 13 0.0 0.0 0.08 3.99 2.97 1 1003.6
20260506043011 10 13 0.0 0.0 0.08 3.99 2.97 1 1003.6
20260506041516 11 13 0.0 0.0 0.10 3.96 2.95 1 1003.6
20260506041511 11 13 0.0 0.0 0.10 3.96 2.95 1 1003.6
20260506040011 11 13 0.0 0.0 0.25 3.96 2.95 1 1003.5
20260506034511 11 13 0.0 0.0 0.38 3.99 2.95 1 1003.5
20260506033434 11 13 0.0 0.0 0.46 3.94 2.90 1 1003.5
20260506033011 11 13 0.0 0.0 0.46 3.94 2.90 1 1003.5
20260506031516 11 13 0.0 0.0 0.56 3.89 2.84 1 1003.7
20260506031511 11 13 0.0 0.0 0.56 3.89 2.84 1 1003.7
20260506030123 11 13 0.0 3.2 0.56 3.73 2.69 1 1003.9
20260506030018 11 13 0.0 3.2 0.56 3.73 2.69 1 1003.9
20260506030011 11 13 0.0 3.2 0.56 3.73 2.69 1 1003.9
20260506024511 11 13 0.0 0.0 0.53 3.63 2.57 1 1004.1
20260506023350 11 13 0.0 0.0 0.69 3.51 2.44 1 1004.3
20260506023011 11 13 0.0 0.0 0.69 3.51 2.44 1 1004.3
20260506021518 11 13 0.0 0.0 0.74 3.35 2.29 1 1004.3
20260506021511 11 13 0.0 0.0 0.74 3.35 2.29 1 1004.3
20260506020011 11 13 0.0 0.0 0.69 3.20 2.13 1 1004.3
20260506014511 11 13 0.0 0.0 0.71 3.10 2.03 1 1004.4
20260506013011 11 13 0.0 0.0 0.51 2.82 1.75 1 1004.3
20260506011511 11 13 0.0 0.0 0.43 2.62 1.55 1 1004.5
20260506010011 11 13 0.0 0.0 0.46 2.51 1.45 1 1004.4
20260506004511 11 13 0.0 0.0 0.41 2.39 1.32 1 1004.5
20260506003011 11 13 0.0 0.0 0.43 2.31 1.24 1 1004.7
20260506001511 11 13 0.0 0.0 0.41 2.18 1.12 1 1004.8
20260506000016 12 13 0.0 0.0 0.53 2.06 0.99 1 1005.0
20260506000011 12 13 0.0 0.0 0.53 2.06 0.99 1 1005.0
20260505234517 12 13 0.0 0.0 0.71 1.98 0.91 1 1005.1
20260505234511 12 13 0.0 0.0 0.71 1.98 0.91 1 1005.1
20260505233011 12 13 0.0 0.0 0.74 1.88 0.81 1 1005.2
20260505231511 12 13 0.0 0.0 0.69 1.78 0.71 1 1005.3
20260505230011 12 13 0.0 0.0 0.46 1.52 0.46 1 1005.4
20260505224516 12 13 0.0 0.0 0.25 1.27 0.20 1 1005.4
20260505224511 12 13 0.0 0.0 0.25 1.27 0.20 1 1005.4
20260505223011 12 13 0.0 0.0 0.18 1.14 0.08 1 1005.5
20260505221511 12 13 0.0 0.0 0.18 1.09 0.03 1 1005.5
20260505220011 12 13 0.0 0.0 0.20 1.07 0.00 1 1005.5
20260505214511 12 13 0.0 0.0 0.20 1.02 1.02 1 1005.7